Location: Unspecified
(0.0000°N, 0.0000°E)
Time: 04:45:23
(UTC+00:00)

Sunsat (SO-35) - Visible Passes

Search period start: 19 June 2024 00:00
Search period end: 29 June 2024 00:00
Orbit: 637 x 843 km, 96.5° (Epoch: 18 June)

Date Brightness Start Highest point End Pass type
(mag) Time Alt. Az. Time Alt. Az. Time Alt. Az.
19 Jun 8.4 19:57:11 77° ENE 19:57:11 77° ENE 20:02:08 10° N visible
20 Jun 9.7 19:12:34 22° E 19:13:01 22° E 19:16:54 10° NNE visible
20 Jun 10.7 20:52:14 21° W 20:52:14 21° W 20:55:20 10° NW visible
21 Jun 8.6 20:07:37 75° W 20:07:37 75° W 20:12:31 10° NNW visible
22 Jun 9.3 19:22:59 31° E 19:23:28 31° E 19:27:52 10° NNE visible
22 Jun 11.1 21:02:39 15° W 21:02:39 15° W 21:04:46 10° WNW visible
23 Jun 9.1 20:18:02 52° W 20:18:02 52° W 20:22:46 10° NNW visible
24 Jun 8.8 19:33:24 42° E 19:33:56 44° E 19:38:36 10° N visible
25 Jun 10.3 18:48:46 12° E 18:49:50 12° E 18:51:50 10° ENE visible
25 Jun 9.7 20:28:27 36° W 20:28:27 36° W 20:32:52 10° NW visible
26 Jun 8.4 19:43:49 58° ESE 19:44:23 63° E 19:49:11 10° N visible
27 Jun 9.9 18:59:11 17° E 19:00:17 18° E 19:03:30 10° NE visible
27 Jun 10.3 20:38:51 25° W 20:38:51 25° W 20:42:45 10° NW visible
28 Jun 8.3 19:54:13 71° S 19:54:48 90° W 19:59:37 10° N visible
